SUR6183 SPRU-SCEL

Flight info

Callsign SUR6183
Flight time N/A
Altitude 31000
Route ESMIL DCT ISREN UM542 ILMAR UL302 IREMI/N0440F330 UL302 SIMOK SIMOK7B
Aircraft MD88/M-SDFGHRWY/C

Departure

Time N/A
Airport Capitán FAP Carlos Martínez de Pinillos International Airport (SPRU)

Arrival

Time 2026-05-03 20:24
Airport Comodoro Arturo Merino Benítez International Airport (SCEL)
Time Latitude Longitude Altitude Speed Heading
2026-05-03 20:15 -32.91448 -70.81133 9671 ft 286 kts 179°
2026-05-03 20:15 -32.93423 -70.81025 9409 ft 284 kts 179°
2026-05-03 20:15 -32.95374 -70.80919 9159 ft 281 kts 179°
2026-05-03 20:15 -32.97319 -70.80820 8890 ft 279 kts 179°
2026-05-03 20:16 -32.99257 -70.80718 8636 ft 277 kts 179°
2026-05-03 20:16 -33.01178 -70.80617 8369 ft 275 kts 179°
2026-05-03 20:16 -33.03096 -70.80517 8050 ft 275 kts 178°
2026-05-03 20:16 -33.05019 -70.80417 7739 ft 276 kts 178°
2026-05-03 20:17 -33.06932 -70.80318 7425 ft 276 kts 178°
2026-05-03 20:17 -33.08833 -70.80218 7071 ft 268 kts 177°
2026-05-03 20:17 -33.10656 -70.80123 6658 ft 257 kts 178°
2026-05-03 20:17 -33.12429 -70.80158 6140 ft 253 kts 183°
2026-05-03 20:18 -33.14143 -70.80385 5887 ft 236 kts 188°
2026-05-03 20:18 -33.15634 -70.80713 5939 ft 203 kts 191°
2026-05-03 20:18 -33.16888 -70.80930 5989 ft 164 kts 182°
2026-05-03 20:18 -33.17960 -70.81007 5653 ft 157 kts 184°
2026-05-03 20:19 -33.19097 -70.81077 5252 ft 165 kts 181°
2026-05-03 20:19 -33.20237 -70.81074 4948 ft 162 kts 179°
2026-05-03 20:19 -33.21347 -70.81039 4683 ft 157 kts 178°
2026-05-03 20:19 -33.22429 -70.80975 4403 ft 156 kts 176°
2026-05-03 20:20 -33.23517 -70.80904 4064 ft 158 kts 178°
2026-05-03 20:20 -33.24593 -70.80855 3879 ft 148 kts 178°
2026-05-03 20:20 -33.25603 -70.80799 3686 ft 144 kts 178°
2026-05-03 20:20 -33.26600 -70.80744 3471 ft 145 kts 180°
2026-05-03 20:21 -33.27610 -70.80748 3316 ft 143 kts 181°
2026-05-03 20:21 -33.28606 -70.80733 3179 ft 145 kts 179°
2026-05-03 20:21 -33.29617 -70.80705 3079 ft 146 kts 180°
2026-05-03 20:21 -33.30643 -70.80688 2954 ft 145 kts 180°
2026-05-03 20:22 -33.31661 -70.80640 2793 ft 148 kts 178°
2026-05-03 20:22 -33.32669 -70.80583 2632 ft 141 kts 179°
2026-05-03 20:22 -33.33639 -70.80547 2384 ft 139 kts 179°
2026-05-03 20:22 -33.34598 -70.80510 2132 ft 137 kts 178°
2026-05-03 20:23 -33.35548 -70.80442 1908 ft 133 kts 175°
2026-05-03 20:23 -33.36444 -70.80408 1739 ft 125 kts 180°
2026-05-03 20:23 -33.37313 -70.80357 1594 ft 125 kts 179°
2026-05-03 20:23 -33.38139 -70.80326 1575 ft 86 kts 177°
2026-05-03 20:24 -33.38502 -70.80305 1574 ft 44 kts 178°
2026-05-03 20:24 -33.38794 -70.80290 1574 ft 39 kts 178°
2026-05-03 20:24 -33.39050 -70.80280 1573 ft 28 kts 176°
2026-05-03 20:24 -33.39227 -70.80245 1573 ft 17 kts 164°
2026-05-03 20:25 -33.39328 -70.80198 1573 ft 13 kts 151°
2026-05-03 20:25 -33.39360 -70.80174 1573 ft 0 kts 147°
2026-05-03 20:27 -33.39364 -70.80171 1573 ft 2 kts 147°
2026-05-03 20:27 -33.39383 -70.80157 1574 ft 4 kts 147°
2026-05-03 20:27 -33.39434 -70.80119 1574 ft 12 kts 148°
2026-05-03 20:28 -33.39519 -70.80045 1575 ft 16 kts 127°
2026-05-03 20:28 -33.39531 -70.79903 1576 ft 18 kts 87°
2026-05-03 20:28 -33.39526 -70.79743 1578 ft 19 kts 88°
2026-05-03 20:28 -33.39520 -70.79580 1581 ft 19 kts 87°
2026-05-03 20:29 -33.39513 -70.79415 1584 ft 19 kts 88°
2026-05-03 20:29 -33.39507 -70.79251 1586 ft 20 kts 87°
2026-05-03 20:29 -33.39501 -70.79080 1587 ft 21 kts 88°
2026-05-03 20:29 -33.39505 -70.78911 1587 ft 16 kts 120°
2026-05-03 20:30 -33.39591 -70.78884 1587 ft 13 kts 179°
2026-05-03 20:30 -33.39682 -70.78879 1587 ft 12 kts 178°
2026-05-03 20:30 -33.39770 -70.78879 1587 ft 12 kts 199°
2026-05-03 20:30 -33.39821 -70.78944 1587 ft 9 kts 202°
2026-05-03 20:31 -33.39867 -70.78957 1587 ft 0 kts 192°
2026-05-03 20:31 -33.39866 -70.78957 1587 ft 0 kts 192°